Powrót do katalogu

ATLAS 5 CENTAUR DEB

LostHEO
NORAD 43975·DEBRIS·🇺🇸 United States

Wystrzelony Sep 17, 2014 z Cape Canaveral Space Force Station

Loading…

Następne Przeloty (najbliższe 24 godziny)

TLE

NieaktualneSource: Space-Track

Epoka: Sep 6, 2025, 16:47 UTC

1 43975U 14055AE  25249.69989522  .00000006  00000-0  00000-0 0  9991
2 43975  20.7548 126.6478 5002287 196.5106 138.2613  1.93215598 49507

Śledź ATLAS 5 CENTAUR DEB w czasie rzeczywistym z AllMySat

Download on the App Store